EW6566 Weather Reports


time (UTC)temp
F
wind
direction
speed
knots
gust
knots
rain 1hr
in
rain 24hr
in
rain mn
in
humidity
%
barometer
mb
20260507064518 56 0.0 0.0 0.00 0.00 0.00 65 1015.9
20260507063618 54 0.0 0.0 0.00 0.00 0.00 76 1015.8
20260507062518 51 0.0 0.0 0.00 0.00 0.00 84 1015.8
20260507061518 49 0.0 0.0 0.00 0.00 0.00 86 1015.7
20260507060538 48 0.0 0.0 0.00 0.00 0.00 88 1015.6
20260507055518 47 0.0 0.0 0.00 0.00 0.00 90 1015.6
20260507054539 47 0.0 0.0 0.00 0.00 0.00 90 1015.6
20260507053518 47 0.0 0.0 0.00 0.00 0.00 91 1015.5
20260507052518 46 0.0 0.0 0.00 0.00 0.00 91 1015.3
20260507051518 46 0.0 0.0 0.00 0.00 0.00 91 1015.3
20260507050518 46 0.0 0.0 0.00 0.00 0.00 91 1015.2
20260507045518 46 0.0 0.0 0.00 0.00 0.00 91 1015.1
20260507044518 46 0.0 0.0 0.00 0.00 0.00 91 1015.0
20260507043518 46 0.0 0.0 0.00 0.00 0.00 91 1015.0
20260507042537 45 0.0 0.0 0.00 0.00 0.00 90 1014.9
20260507041538 45 0.0 0.0 0.00 0.00 0.00 90 1014.8
20260507040518 45 0.0 0.0 0.00 0.00 0.00 90 1014.7
20260507035517 45 0.0 0.0 0.00 0.00 0.00 90 1014.6
20260507034519 45 0.0 0.0 0.00 0.00 0.00 90 1014.6
20260507033519 45 0.0 0.0 0.00 0.00 0.00 89 1014.5
20260507032540 45 0.0 0.0 0.00 0.00 0.00 89 1014.4
20260507031520 45 0.0 0.0 0.00 0.00 0.00 88 1014.4
20260507030520 46 0.0 0.0 0.00 0.00 0.00 88 1014.5
20260507025518 46 0.0 0.0 0.00 0.00 0.00 88 1014.5
20260507024519 46 0.0 0.0 0.00 0.00 0.00 87 1014.4
20260507023519 46 0.0 0.0 0.00 0.00 0.00 87 1014.4
20260507022520 46 0.0 0.0 0.00 0.00 0.00 86 1014.1
20260507021519 46 0.0 0.0 0.00 0.00 0.00 85 1014.1
20260507020520 46 0.0 0.0 0.00 0.00 0.00 84 1014.0
20260507015519 47 0.0 0.0 0.00 0.00 0.00 84 1014.0
20260507014520 47 0.0 0.0 0.00 0.00 0.00 83 1014.0
20260507013559 47 0.0 0.0 0.00 0.00 0.00 83 1013.9
20260507012539 47 0.0 0.0 0.00 0.00 0.00 82 1013.9
20260507011525 47 0.0 0.0 0.00 0.00 0.00 81 1013.8
20260507010519 47 0.0 0.0 0.00 0.00 0.00 81 1013.8
20260507005538 47 0.0 0.0 0.00 0.00 0.00 79 1013.8
20260507004519 48 0.0 0.0 0.00 0.00 0.00 78 1013.8
20260507003519 48 0.0 0.0 0.00 0.00 0.00 77 1013.7
20260507002519 48 0.0 0.0 0.00 0.00 0.00 77 1013.7
20260507001519 49 0.0 0.0 0.00 0.00 0.00 77 1013.7
20260507000539 49 0.0 0.0 0.00 0.00 0.00 76 1013.6
20260506235519 49 0.0 0.0 0.00 0.00 0.00 75 1013.6
20260506234519 50 0.0 0.0 0.00 0.00 0.00 74 1013.6
20260506233519 50 0.0 0.0 0.00 0.00 0.00 73 1013.5
20260506232539 50 0.0 0.0 0.00 0.00 0.00 70 1013.5
20260506231519 51 0.0 0.0 0.00 0.00 0.00 69 1013.5
20260506230519 51 0.0 0.0 0.00 0.00 0.00 69 1013.5
20260506225519 51 0.0 0.0 0.00 0.00 0.00 69 1013.4
20260506224519 51 0.0 0.0 0.00 0.00 0.00 69 1013.3
20260506223519 51 0.0 0.0 0.00 0.00 0.00 68 1013.4
20260506222519 52 0.0 0.0 0.00 0.00 0.00 68 1013.2
20260506221539 52 0.0 0.0 0.00 0.00 0.00 67 1013.3
20260506220518 52 0.0 0.0 0.00 0.00 0.00 67 1013.2
20260506215519 52 0.0 0.0 0.00 0.00 0.00 66 1013.0
20260506214519 52 0.0 0.0 0.00 0.00 0.00 65 1013.0
20260506213526 53 0.0 0.0 0.00 0.00 0.00 64 1012.9
20260506212524 53 0.0 0.0 0.00 0.00 0.00 64 1012.8
20260506211518 53 0.0 0.0 0.00 0.00 0.00 63 1012.6
20260506210519 53 0.0 0.0 0.00 0.00 0.00 63 1012.6
20260506205519 53 0.0 0.0 0.00 0.00 0.00 62 1012.5
20260506204520 53 0.0 0.0 0.00 0.00 0.00 62 1012.4
20260506203519 53 0.0 0.0 0.00 0.00 0.00 62 1012.3
20260506202519 54 0.0 0.0 0.00 0.00 0.00 63 1012.2
20260506201519 54 0.0 0.0 0.00 0.00 0.00 63 1012.2
20260506200519 54 0.0 0.0 0.00 0.00 0.00 63 1012.2
20260506195539 54 0.0 0.0 0.00 0.00 0.00 63 1012.1
20260506194519 54 0.0 0.0 0.00 0.00 0.00 64 1012.0
20260506193519 54 0.0 0.0 0.00 0.00 0.00 63 1012.0
20260506192539 54 0.0 0.0 0.00 0.00 0.00 63 1011.8
20260506191518 55 0.0 0.0 0.00 0.00 0.00 64 1011.6
20260506190559 55 0.0 0.0 0.00 0.00 0.00 63 1011.5
20260506185539 55 0.0 0.0 0.00 0.00 0.00 62 1011.3
20260506184519 55 0.0 0.0 0.00 0.00 0.00 59 1011.2
20260506183519 55 0.0 0.0 0.00 0.00 0.00 57 1011.2
20260506182519 55 0.0 0.0 0.00 0.00 0.00 55 1011.1
20260506181519 55 0.0 0.0 0.00 0.00 0.00 55 1011.0
20260506180519 55 0.0 0.0 0.00 0.00 0.00 54 1010.9
20260506175519 56 0.0 0.0 0.00 0.00 0.00 54 1010.9
20260506174519 56 0.0 0.0 0.00 0.00 0.00 53 1010.8
20260506173519 56 0.0 0.0 0.00 0.00 0.00 53 1010.7
20260506172519 56 0.0 0.0 0.00 0.00 0.00 52 1010.4
20260506171519 56 0.0 0.0 0.00 0.00 0.00 53 1010.4
20260506170519 56 0.0 0.0 0.00 0.00 0.00 53 1010.3
20260506165519 57 0.0 0.0 0.00 0.00 0.00 54 1010.4
20260506164538 57 0.0 0.0 0.00 0.00 0.00 51 1010.4
20260506163519 57 0.0 0.0 0.00 0.00 0.00 52 1010.4
20260506162538 57 0.0 0.0 0.00 0.00 0.00 51 1010.3
20260506161519 57 0.0 0.0 0.00 0.00 0.00 51 1010.2
20260506160519 57 0.0 0.0 0.00 0.00 0.00 51 1010.3
20260506155539 57 0.0 0.0 0.00 0.00 0.00 49 1010.3
20260506154538 57 0.0 0.0 0.00 0.00 0.00 50 1010.4
20260506153518 57 0.0 0.0 0.00 0.00 0.00 50 1010.3
20260506152519 57 0.0 0.0 0.00 0.00 0.00 51 1010.3
20260506151519 56 0.0 0.0 0.00 0.00 0.00 51 1010.2
20260506150518 56 0.0 0.0 0.00 0.00 0.00 52 1010.3
20260506145519 56 0.0 0.0 0.00 0.00 0.00 52 1010.2
20260506144519 56 0.0 0.0 0.00 0.00 0.00 51 1010.2
20260506143538 56 0.0 0.0 0.00 0.00 0.00 52 1010.2
20260506142518 56 0.0 0.0 0.00 0.00 0.00 50 1010.2
20260506141518 56 0.0 0.0 0.00 0.00 0.00 51 1010.2
20260506140539 56 0.0 0.0 0.00 0.00 0.00 50 1010.1
20260506135518 56 0.0 0.9 0.00 0.00 0.00 49 1010.0
20260506134519 57 0.0 0.0 0.00 0.00 0.00 49 1010.1
20260506133538 57 0.0 0.0 0.00 0.00 0.00 50 1009.9
20260506132518 56 0.0 0.0 0.00 0.00 0.00 50 1010.0
20260506131518 56 0.0 0.0 0.00 0.00 0.00 49 1010.0
20260506130518 56 0.0 0.0 0.00 0.00 0.00 50 1010.0
20260506125518 56 0.0 0.0 0.00 0.00 0.00 49 1009.9
20260506124518 57 0.0 0.0 0.00 0.00 0.00 46 1009.8
20260506123518 57 0.0 0.0 0.00 0.00 0.00 46 1009.9
20260506122518 57 0.0 0.0 0.00 0.00 0.00 46 1009.8
20260506121518 57 0.0 0.0 0.00 0.00 0.00 46 1009.8
20260506120526 57 0.0 0.0 0.00 0.00 0.00 48 1009.8
20260506115518 57 0.0 0.0 0.00 0.00 0.00 48 1009.7
20260506114518 57 0.0 0.0 0.00 0.00 0.00 48 1009.7
20260506113518 57 0.0 0.0 0.00 0.00 0.00 50 1009.8
20260506112518 57 0.0 0.0 0.00 0.00 0.00 52 1009.6
20260506111518 56 0.0 0.0 0.00 0.00 0.00 57 1009.6
20260506110518 56 0.0 0.0 0.00 0.00 0.00 57 1009.6
20260506105518 56 0.0 0.0 0.00 0.00 0.00 56 1009.5
20260506104517 56 0.0 0.0 0.00 0.00 0.00 56 1009.5
20260506103518 56 0.0 0.0 0.00 0.00 0.00 58 1009.5
20260506102518 55 0.0 0.0 0.00 0.00 0.00 66 1009.5
20260506101518 56 0.0 0.0 0.00 0.00 0.00 67 1009.4
20260506100518 56 0.0 0.0 0.00 0.00 0.00 65 1009.4
20260506095518 57 0.0 0.0 0.00 0.00 0.00 62 1009.3
20260506094518 57 0.0 0.0 0.00 0.00 0.00 58 1009.3
20260506093518 58 0.0 0.0 0.00 0.00 0.00 57 1009.2
20260506092518 58 0.0 0.0 0.00 0.00 0.00 56 1009.2
20260506091538 58 0.0 0.0 0.00 0.00 0.00 58 1009.1
20260506090518 58 0.0 0.0 0.00 0.00 0.00 59 1009.1
20260506085518 58 0.0 0.0 0.00 0.00 0.00 60 1009.1
20260506084518 58 0.0 0.0 0.00 0.00 0.00 62 1009.1
20260506083518 57 0.0 0.0 0.00 0.00 0.00 61 1009.1
20260506082518 57 0.0 0.0 0.00 0.00 0.00 61 1009.0
20260506081518 56 0.0 0.0 0.00 0.00 0.00 60 1008.9
20260506080518 57 0.0 0.0 0.00 0.00 0.00 61 1009.0
20260506073518 57 0.0 0.0 0.00 0.00 0.00 62 1008.8
20260506072518 57 0.0 0.0 0.00 0.00 0.00 63 1008.7
20260506071518 56 0.0 0.0 0.00 0.00 0.00 65 1008.7
20260506070518 56 0.0 0.0 0.00 0.00 0.00 70 1008.8